User: anonymous   Login
Location: Unspecified
(0.0000°N, 0.0000°E)
Time: 16:49:21
(UTC+01:00)
Language:

Cosmos 1072 Rocket - Orbit

View from above orbital plane
View from above orbital plane
View from above satellite
View from above satellite

Ground track
Ground track

The orbit data is extracted from the following two-line orbital elements,

1 11239U 79003B   18055.96688321 +.00000120 +00000-0 +10776-3 0  9994
2 11239 082.9350 260.9303 0041692 048.0844 060.2921 13.75815334962353
Epoch (UTC): 24 February 2018 23:12:18
Eccentricity: 0.0041692
inclination: 82.9350°
perigee height: 948 km
apogee height: 1009 km
right ascension of ascending node: 260.9303°
argument of perigee: 48.0844°
revolutions per day: 13.75815334
mean anomaly at epoch: 60.2921°
orbit number at epoch: 96235

The dashed part of the orbit path shows where the satellite is in the earth's shadow,  

DLR